Showing default

LES 9, 8747

Orbit data source: Space-Track

LES 9, 8747 is a payload satellite owned by SAMSO (US) in GEO that was launched on Mon, 15 Mar 1976 UTC via a TITAN IIIC launch vehicle from the Air Force Eastern Test Range (AFETR). Payloads include a variety of satellites, spacecraft, and rockets equipped with specific instruments for various scientific and technological missions. These include communications satellites like Starlink; space stations such as the ISS; scientific satellites like the Hubble; Earth observation satellites from companies like Planet Labs, Umbra, and HawkEye 360; GPS; miniature CubeSats for education and research; and military/defense satellites.

Loading next visibility...
LES 9 details
Identifier
8747, 1976-023B
Orbit
GEO
Last TLE update20 hours ago
Origin
Flag of USSAMSO (US)
ManufacturerMIT-LL
MissionNon-operational Defense Com/Tech
Bus & MotorLES, Unknown motor
Mass420 kg wet, 366 kg dry
Launch date (UTC)
1976-03-15 (49 years ago)
Launch vehicle
TITAN IIIC
Launch site
Air Force Eastern Test Range (AFETR)
Object type
Payload
Rocket body
Debris
Shape & HBRBox + Cyl + 1 Ant, 4 m
Radar Cross Section4.285 m², Large (>1 m²)

Expand to show TLE details & history

TLE from 20 hours ago
0 LES 9
1 08747U 76023B   25035.34820014 -.00000092  00000-0  00000-0 0  9993
2 08747  21.4273  43.3957 0024594 167.5217 300.9167  1.00272485124687
Epoch: 2025-02-04T08:21Z
Definitive object data (Epoch: 2025-02-04T08:21:24.492Z)
Latitude20.32288°
Longitude-107.25473°
Altitude35,732.807 km
Speed3.079 km/s
True Right ascension10h 11m 24s
True Declination20° 18' 14"
Sunlit
Object was in daylight at TLE epoch
Visualization TLE readout
Latitude14.51154°
Longitude-175.46375°
Altitude35,843.227 km
Speed3.071 km/s
Apparent Right ascension05h 35m 37s
Apparent Declination10° 13' 55"
Sunlit
Object is in daylight
Visualization observer readout
Local Sidereal Time06:00:16
Azimuth192.132° SSW
Elevation59.815°
Doppler factor1
Orbital elements
Apogee altitude35,890.962 km
Perigee altitude35,683.558 km
Semi-major axis42,165.397 km
Eccentricity0.0024594
Inclination21.4273°
RAAN43.3957°
Arg. of periapsis167.5217°
True anomaly300.67454°
Mean anomaly300.9167°
Eccentric anomaly300.79566°
Mean motion0.25067 °/min
BSTARUnknown
Orbital period1436.13 mins
Loading historical data...
8747 neighbors
Authenticating...
Loading maneuver chart data...
Loading historical data...
Loading historical data...
Loading historical data...
Loading historical data...
Loading historical data...
Loading historical data...
Loading historical data...

LES 9 Visibility forecast

Observer location: undefined°, undefined

Span
Click to sort rows by Start time (UTC) header in descending order
Start Az.
Max El. time (UTC)
Max El. Az.
Max El.
End time (UTC)
End Az.
1440 mins2025-02-05 03:58:30.643Z192.125° SSW2025-02-05 07:13:30.643Z189.51° SSW42.848°2025-02-06 03:58:30.643Z192.248° SSW
|